Retour au catalogue

DELTA 1 DEB

ActifLEO
NORAD 7195·DEBRIS·🇺🇸 United States

Lancé Nov 6, 1973 depuis Vandenberg Space Force Base

Loading…

Prochains Passages (prochaines 24 heures)

TLE

FraisSource: Space-Track

Époque: Sep 14, 2026, 05:59 UTC

1 07195U 73086FD  26257.24965359  .00000859  00000-0  10250-2 0  9993
2 07195 103.1778 252.0129 0298380 158.1324 203.2847 13.54373626566627

Suivez DELTA 1 DEB en temps réel avec AllMySat

Download on the App Store